Location: DARK SKY Beskydy - Park tmavé oblohy, www.darkskybeskydy.cz
(49.4926°N, 18.5016°E)
Time: 09:33:44
(UTC+02:00)

Envisat - Pass Details

Date: 18 June 2024
Orbit: 762 x 764 km, 98.3° (Epoch: 13 July)

Event Time Altitude Azimuth Distance (km) Brightness Sun altitude
Rises 03:49:11 0° 17° (NNE) 3,238 7.6 -6.6°
Reaches altitude 10° 03:51:33 10° 22° (NNE) 2,307 6.9 -6.4°
Maximum altitude 03:56:33 56° 100° (E) 910 3.7 -5.8°
Drops below altitude 10° 04:01:30 10° 179° (S) 2,289 5.1 -5.3°
Sets 04:03:50 0° 183° (S) 3,211 5.8 -5.0°
